Volver al catálogo

STARLINK-34680

ActivoComunicacionesVLEO
NORAD 65356·PAYLOAD·🇺🇸 United States

Lanzado Aug 28, 2025 desde Cape Canaveral Space Force Station

Loading…

Próximos Pases (próximas 24 horas)

TLE

ActualizadoSource: CelesTrak SupGP

Época: Sep 14, 2026, 22:55 UTC

1 65356C 25190F   26257.95534722 -.00010800  00000+0 -31922-3 0  2578
2 65356  53.1592   7.6174 0001183  83.0764 254.1982 15.34384057    10

Sigue STARLINK-34680 en tiempo real con AllMySat

Download on the App Store